Location: Saluda
(35.2377°N, 82.3468°W)
Time: 15:24:25
(UTC+00:00)

Explorer 11/Cluster Stage 4 - Pass Details

Date: 08 October 2022
Orbit: 466 x 1247 km, 28.8° (Epoch: 08 December)

Event Time Altitude Azimuth Distance (km) Brightness Sun altitude
Rises 19:46:39 0° 269° (W) 4,143 10.9 35.7°
Reaches altitude 10° 19:50:14 10° 258° (WSW) 3,112 10.7 35.1°
Maximum altitude 19:56:15 25° 207° (SSW) 2,049 10.3 34.2°
Drops below altitude 10° 20:01:36 10° 155° (SSE) 2,732 9.6 33.3°
Sets 20:04:32 0° 142° (SE) 3,542 9.9 32.9°
